Newport, AR

7:26 AM CST on January 16, 2017 (GMT -0600)
Newport

Weather History for KM19 - March, 2013

Change the Weather History Date:

Friday, March 8, 2013

  Actual Average (KBVX) Record (KBVX)
Temperature  
Mean Temperature 42 °F -  
Max Temperature 54 °F 61 °F 132 °F (1997)
Min Temperature 31 °F 36 °F 18 °F (1971)
Degree Days  
Heating Degree Days 22    
Moisture  
Dew Point 35 °F    
Average Humidity 70    
Maximum Humidity 96    
Minimum Humidity 49    
Precipitation  
Precipitation 0.00 in - - ()
Sea Level Pressure  
Sea Level Pressure 30.33 in    
Wind  
Wind Speed 7 mph (ENE)    
Max Wind Speed 10 mph    
Max Gust Speed -    
Visibility 7 miles    
Events      
Averages and records for this station are not official NWS values.
T = Trace of Precipitation, MM = Missing Value Source: NWS Daily Summary

Daily Weather History Graph

Daily Weather History Graph

Search for Another Location

Airport or City:

Trip Planner

Search our weather history database for the weather conditions in past years. The results will help you decide how hot, cold, wet, or windy it might be!

Date:

Astronomy

Mar. 08, 2013 Rise Set
Actual Time 6:24 AM CST 6:06 PM CST
Civil Twilight 5:59 AM CST 6:31 PM CST
Nautical Twilight 5:29 AM CST 7:01 PM CST
Astronomical Twilight 5:00 AM CST 7:31 PM CST
Moon 4:03 AM CST (3/8) 3:06 PM CST (3/8)
Length of Visible Light 12h 32m
Length of Day
11h 41m
Waning Crescent, 11% of the Moon is Illuminated
Mar 8
Waning Crescent
Mar 11
New
Mar 19
First Quarter
Mar 27
Full
Apr 2
Last Quarter

Hourly Weather History & Observations

Time (CST) Temp. Windchill Dew Point Humidity Pressure Visibility Wind Dir Wind Speed Gust Speed Precip Events Conditions
12:56 AM 34.9 °F 29.9 °F 32.0 °F 89% 30.34 in 9.0 mi NE 5.8 mph - N/A   Clear
1:56 AM 32.9 °F 29.8 °F 32.0 °F 96% 30.36 in 7.0 mi North 3.5 mph - N/A   Clear
2:56 AM 34.0 °F 27.2 °F 32.0 °F 92% 30.33 in 9.0 mi NE 8.1 mph - N/A   Clear
3:56 AM 32.9 °F 25.9 °F 31.1 °F 93% 30.33 in 8.0 mi NE 8.1 mph - N/A   Scattered Clouds
4:56 AM 32.0 °F 24.8 °F 31.1 °F 96% 30.34 in 7.0 mi NE 8.1 mph - N/A   Clear
5:56 AM 32.0 °F 26.4 °F 30.0 °F 92% 30.37 in 8.0 mi NNE 5.8 mph - N/A   Clear
6:56 AM 31.1 °F 25.4 °F 30.0 °F 96% 30.40 in 5.0 mi NNE 5.8 mph - N/A   Clear
7:56 AM 36.9 °F 30.7 °F 32.9 °F 86% 30.40 in 10.0 mi ENE 8.1 mph - N/A   Clear
8:56 AM 41.0 °F 35.8 °F 32.9 °F 73% 30.41 in 6.0 mi East 8.1 mph - N/A   Haze
9:56 AM 43.9 °F 38.8 °F 32.9 °F 65% 30.40 in 9.0 mi East 9.2 mph - N/A   Clear
10:20 AM 46.4 °F 43.5 °F 33.8 °F 62% 30.39 in 4.0 mi East 5.8 mph - N/A   Haze
10:27 AM 46.4 °F 42.9 °F 33.8 °F 62% 30.38 in 1.5 mi ENE 6.9 mph - N/A   Haze
10:37 AM 46.4 °F 42.4 °F 35.6 °F 66% 30.38 in 3.0 mi East 8.1 mph - N/A   Haze
10:47 AM 46.4 °F 41.9 °F 35.6 °F 66% 30.38 in 1.8 mi ENE 9.2 mph - N/A   Haze
10:49 AM 46.4 °F 42.4 °F 35.6 °F 66% 30.39 in 1.0 mi East 8.1 mph - N/A   Haze
10:56 AM 46.9 °F - 34.0 °F 61% 30.39 in 1.0 mi East 8.1 mph - N/A   Haze
10:58 AM 48.2 °F - 33.8 °F 58% 30.39 in 2.0 mi East 9.2 mph - N/A   Haze
11:05 AM 48.2 °F - 33.8 °F 58% 30.38 in 7.0 mi East 9.2 mph - N/A   Clear
11:21 AM 48.2 °F - 35.6 °F 62% 30.37 in 2.0 mi ENE 9.2 mph - N/A   Haze
11:28 AM 48.2 °F - 35.6 °F 62% 30.37 in 1.5 mi East 10.4 mph - N/A   Haze
11:31 AM 48.2 °F - 35.6 °F 62% 30.37 in 3.0 mi East 6.9 mph - N/A   Haze
11:42 AM 50.0 °F - 35.6 °F 58% 30.37 in 1.5 mi ENE 9.2 mph - N/A   Haze
11:44 AM 50.0 °F - 35.6 °F 58% 30.37 in 1.0 mi ENE 5.8 mph - N/A   Haze
11:56 AM 50.0 °F - 34.9 °F 56% 30.37 in 9.0 mi East 9.2 mph - N/A   Clear
12:56 PM 52.0 °F - 34.9 °F 52% 30.34 in 10.0 mi ENE 5.8 mph - N/A   Clear
1:56 PM 54.0 °F - 36.0 °F 51% 30.31 in 10.0 mi ENE 8.1 mph - N/A   Clear
2:56 PM 54.9 °F - 36.0 °F 49% 30.30 in 10.0 mi ENE 5.8 mph - N/A   Clear
3:56 PM 54.0 °F - 36.0 °F 51% 30.27 in 10.0 mi ENE 6.9 mph - N/A   Clear
4:56 PM 52.9 °F - 37.9 °F 57% 30.25 in 10.0 mi East 9.2 mph - N/A   Clear
5:56 PM 50.9 °F - 39.9 °F 66% 30.24 in 10.0 mi NE 3.5 mph - N/A   Clear
6:56 PM 47.8 °F - 41.0 °F 77% 30.24 in 10.0 mi NE 6.9 mph - N/A   Clear
7:56 PM 47.8 °F - 38.8 °F 71% 30.26 in 10.0 mi NNE 4.6 mph - N/A   Clear
8:56 PM 45.9 °F 42.3 °F 39.9 °F 80% 30.23 in 10.0 mi NE 6.9 mph - N/A   Clear
9:56 PM 45.9 °F 44.6 °F 38.8 °F 76% 30.23 in 10.0 mi NE 3.5 mph - N/A   Clear
10:56 PM 45.9 °F 44.6 °F 38.8 °F 76% 30.21 in 10.0 mi North 3.5 mph - N/A   Clear
11:56 PM 45.9 °F 44.6 °F 39.9 °F 80% 30.18 in 10.0 mi NE 3.5 mph - N/A   Clear